Hourly Weather Plotnikovo

Today, 14 August, Friday

Time Temperature Precipitation Wind Pressure Humidity
00:00 +9°C° 0 mm 2 mps 743 mmHg 84%
01:00 +9°C° 0 mm 2 mps 743 mmHg 87%
02:00 +8°C° 0 mm 2 mps 743 mmHg 91%
03:00 +8°C° 0 mm 2 mps 743 mmHg 92%
04:00 +7°C° 0 mm 2 mps 743 mmHg 94%
05:00 +7°C° 0 mm 2 mps 743 mmHg 95%
06:00 +9°C° 0 mm 2 mps 743 mmHg 87%
07:00 +12°C° 0 mm 2 mps 744 mmHg 80%
08:00 +14°C° 0 mm 2 mps 744 mmHg 72%
09:00 +15°C° 0 mm 2 mps 744 mmHg 67%
10:00 +17°C° 0 mm 2 mps 744 mmHg 61%
11:00 +18°C° 0 mm 3 mps 744 mmHg 56%
12:00 +18°C° 0 mm 3 mps 744 mmHg 56%
13:00 +18°C° 0 mm 3 mps 744 mmHg 56%
14:00 +18°C° 0 mm 2 mps 744 mmHg 54%
15:00 +18°C° 0 mm 2 mps 744 mmHg 57%
16:00 +17°C° 0 mm 2 mps 744 mmHg 60%
17:00 +18°C° 0 mm 1 mps 744 mmHg 63%
18:00 +15°C° 0 mm 1 mps 744 mmHg 68%
19:00 +14°C° 0 mm 1 mps 744 mmHg 73%
20:00 +11°C° 0 mm 0 mps 744 mmHg 78%
21:00 +11°C° 0 mm 0 mps 744 mmHg 80%
22:00 +11°C° 0 mm 1 mps 744 mmHg 81%
23:00 +11°C° 0 mm 1 mps 744 mmHg 83%

Tomorrow, 15 August, Saturday

Time Temperature Precipitation Wind Pressure Humidity
00:00 +10°C° 0 mm 1 mps 744 mmHg 84%
01:00 +10°C° 0 mm 1 mps 744 mmHg 86%
02:00 +10°C° 0 mm 1 mps 744 mmHg 87%
03:00 +10°C° 0 mm 1 mps 744 mmHg 87%
04:00 +10°C° 0 mm 1 mps 744 mmHg 87%
05:00 +10°C° 0 mm 1 mps 744 mmHg 87%
06:00 +12°C° 0 mm 1 mps 744 mmHg 82%
07:00 +13°C° 0 mm 1 mps 744 mmHg 77%
08:00 +15°C° 0 mm 1 mps 744 mmHg 72%
09:00 +15°C° 0.1 mm 1 mps 744 mmHg 72%
10:00 +16°C° 0.1 mm 2 mps 744 mmHg 73%
11:00 +17°C° 0.1 mm 2 mps 744 mmHg 73%
12:00 +16°C° 0.3 mm 2 mps 743 mmHg 80%
13:00 +15°C° 0.3 mm 2 mps 743 mmHg 86%
14:00 +14°C° 0.3 mm 2 mps 743 mmHg 93%
15:00 +14°C° 0.1 mm 1 mps 743 mmHg 93%
16:00 +14°C° 0.1 mm 1 mps 743 mmHg 94%
17:00 +14°C° 0.1 mm 1 mps 742 mmHg 94%
18:00 +14°C° 0 mm 1 mps 742 mmHg 95%
19:00 +13°C° 0 mm 1 mps 742 mmHg 96%
20:00 +13°C° 0 mm 1 mps 742 mmHg 97%
21:00 +12°C° 0 mm 1 mps 742 mmHg 97%
22:00 +12°C° 0 mm 1 mps 742 mmHg 97%
23:00 +11°C° 0 mm 1 mps 742 mmHg 97%

Day after tomorrow, 16 August, Sunday

Time Temperature Precipitation Wind Pressure Humidity
00:00 +10°C° 0 mm 0 mps 742 mmHg 97%
01:00 +10°C° 0 mm 0 mps 742 mmHg 97%
02:00 +10°C° 0 mm 0 mps 742 mmHg 96%
03:00 +11°C° 0 mm 1 mps 742 mmHg 97%
04:00 +11°C° 0 mm 1 mps 742 mmHg 97%
05:00 +11°C° 0 mm 1 mps 741 mmHg 97%
06:00 +13°C° 0 mm 1 mps 741 mmHg 94%
07:00 +14°C° 0 mm 1 mps 742 mmHg 91%
08:00 +16°C° 0 mm 1 mps 742 mmHg 88%
09:00 +18°C° 0 mm 2 mps 742 mmHg 82%
10:00 +20°C° 0 mm 2 mps 741 mmHg 75%
11:00 +23°C° 0 mm 2 mps 741 mmHg 69%
12:00 +23°C° 0.1 mm 2 mps 741 mmHg 65%
13:00 +24°C° 0.1 mm 3 mps 741 mmHg 60%
14:00 +25°C° 0.1 mm 3 mps 741 mmHg 55%
15:00 +25°C° 0 mm 3 mps 741 mmHg 60%
16:00 +24°C° 0 mm 3 mps 741 mmHg 65%
17:00 +24°C° 0 mm 2 mps 740 mmHg 69%
18:00 +21°C° 0 mm 2 mps 740 mmHg 75%
19:00 +19°C° 0 mm 2 mps 740 mmHg 81%
20:00 +17°C° 0 mm 2 mps 740 mmHg 87%
21:00 +17°C° 0 mm 2 mps 740 mmHg 88%
22:00 +16°C° 0 mm 2 mps 740 mmHg 89%
23:00 +16°C° 0 mm 2 mps 740 mmHg 90%

17 August, Monday

Time Temperature Precipitation Wind Pressure Humidity
00:00 +16°C° 0.1 mm 3 mps 740 mmHg 91%
01:00 +16°C° 0.1 mm 3 mps 740 mmHg 92%
02:00 +16°C° 0.1 mm 3 mps 740 mmHg 93%
03:00 +16°C° 0.1 mm 3 mps 740 mmHg 94%
04:00 +16°C° 0.1 mm 3 mps 740 mmHg 95%
05:00 +14°C° 0.1 mm 3 mps 740 mmHg 97%
06:00 +17°C° 0 mm 3 mps 740 mmHg 92%
07:00 +18°C° 0 mm 3 mps 740 mmHg 88%
08:00 +19°C° 0 mm 3 mps 740 mmHg 83%
09:00 +20°C° 0.3 mm 3 mps 740 mmHg 78%
10:00 +22°C° 0.3 mm 3 mps 740 mmHg 73%
11:00 +24°C° 0.3 mm 3 mps 740 mmHg 67%
12:00 +24°C° 0.2 mm 3 mps 740 mmHg 64%
13:00 +25°C° 0.2 mm 3 mps 740 mmHg 60%
14:00 +25°C° 0.2 mm 3 mps 740 mmHg 57%
15:00 +25°C° 0 mm 3 mps 740 mmHg 58%
16:00 +24°C° 0 mm 3 mps 740 mmHg 60%
17:00 +23°C° 0 mm 2 mps 740 mmHg 62%
18:00 +20°C° 0 mm 2 mps 740 mmHg 67%
19:00 +18°C° 0 mm 2 mps 740 mmHg 72%
20:00 +16°C° 0 mm 2 mps 740 mmHg 78%
21:00 +15°C° 0 mm 2 mps 740 mmHg 79%
22:00 +14°C° 0 mm 2 mps 740 mmHg 81%
23:00 +13°C° 0 mm 2 mps 740 mmHg 82%

18 August, Tuesday

Time Temperature Precipitation Wind Pressure Humidity
00:00 +13°C° 0 mm 1 mps 740 mmHg 84%
01:00 +12°C° 0 mm 1 mps 740 mmHg 85%
02:00 +12°C° 0 mm 1 mps 740 mmHg 87%
03:00 +11°C° 0 mm 0 mps 740 mmHg 86%
04:00 +11°C° 0 mm 0 mps 740 mmHg 86%
05:00 +11°C° 0 mm 0 mps 740 mmHg 85%
06:00 +13°C° 0 mm 0 mps 740 mmHg 78%
07:00 +16°C° 0 mm 1 mps 740 mmHg 71%
08:00 +19°C° 0 mm 1 mps 740 mmHg 64%
09:00 +21°C° 0 mm 1 mps 740 mmHg 60%
10:00 +22°C° 0 mm 1 mps 740 mmHg 56%
11:00 +24°C° 0 mm 1 mps 740 mmHg 52%
12:00 +24°C° 0 mm 1 mps 740 mmHg 51%
13:00 +25°C° 0 mm 2 mps 739 mmHg 50%
14:00 +25°C° 0 mm 2 mps 739 mmHg 50%
15:00 +24°C° 0 mm 2 mps 739 mmHg 56%
16:00 +24°C° 0 mm 2 mps 739 mmHg 61%
17:00 +23°C° 0 mm 2 mps 738 mmHg 67%
18:00 +20°C° 0 mm 2 mps 738 mmHg 71%
19:00 +19°C° 0 mm 2 mps 738 mmHg 76%
20:00 +17°C° 0 mm 2 mps 738 mmHg 80%
21:00 +17°C° 0 mm 2 mps 738 mmHg 81%
22:00 +17°C° 0 mm 2 mps 738 mmHg 82%
23:00 +16°C° 0 mm 2 mps 738 mmHg 83%

19 August, Wednesday

Time Temperature Precipitation Wind Pressure Humidity
00:00 +16°C° 0 mm 2 mps 738 mmHg 85%
01:00 +15°C° 0 mm 2 mps 738 mmHg 88%
02:00 +15°C° 0 mm 2 mps 737 mmHg 91%
03:00 +15°C° 0 mm 2 mps 737 mmHg 92%
04:00 +14°C° 0 mm 1 mps 737 mmHg 93%
05:00 +14°C° 0 mm 1 mps 737 mmHg 93%
06:00 +16°C° 0 mm 1 mps 737 mmHg 87%
07:00 +19°C° 0 mm 1 mps 737 mmHg 81%
08:00 +20°C° 0 mm 1 mps 738 mmHg 75%
09:00 +22°C° 0 mm 1 mps 738 mmHg 70%
10:00 +23°C° 0 mm 1 mps 738 mmHg 64%
11:00 +24°C° 0 mm 1 mps 738 mmHg 59%
12:00 +25°C° 0 mm 1 mps 738 mmHg 55%
13:00 +25°C° 0 mm 1 mps 738 mmHg 52%
14:00 +25°C° 0 mm 1 mps 737 mmHg 49%
15:00 +25°C° 0 mm 1 mps 737 mmHg 54%
16:00 +24°C° 0 mm 1 mps 737 mmHg 58%
17:00 +24°C° 0 mm 1 mps 737 mmHg 63%
18:00 +22°C° 0 mm 1 mps 737 mmHg 66%
19:00 +20°C° 0 mm 1 mps 737 mmHg 70%
20:00 +17°C° 0 mm 2 mps 737 mmHg 74%
21:00 +16°C° 0 mm 2 mps 737 mmHg 75%
22:00 +16°C° 0 mm 1 mps 737 mmHg 77%
23:00 +15°C° 0 mm 1 mps 737 mmHg 79%
Show more